Year,Month,Day,Hour,Minute,Value (Times are PST for temperature in C)
2006,06,24,00,00,13.70
2006,06,24,00,01,13.70
2006,06,24,00,02,13.60
2006,06,24,00,03,13.60
2006,06,24,00,04,13.60
2006,06,24,00,05,13.50
2006,06,24,00,06,13.50
2006,06,24,00,07,13.40
2006,06,24,00,08,13.40
2006,06,24,00,09,13.40
2006,06,24,00,10,13.40
2006,06,24,00,11,13.40
2006,06,24,00,12,13.30
2006,06,24,00,13,13.30
2006,06,24,00,14,13.30
2006,06,24,00,15,13.30
2006,06,24,00,16,13.30
2006,06,24,00,17,13.20
2006,06,24,00,18,13.20
2006,06,24,00,19,13.20
2006,06,24,00,20,13.20
2006,06,24,00,21,13.20
2006,06,24,00,22,13.20
2006,06,24,00,23,13.10
2006,06,24,00,24,13.10
2006,06,24,00,25,13.10
2006,06,24,00,26,13.10
2006,06,24,00,27,13.10
2006,06,24,00,28,13.10
2006,06,24,00,29,13.10
2006,06,24,00,30,13.10
2006,06,24,00,31,13.10
2006,06,24,00,32,13.10
2006,06,24,00,33,13.10
2006,06,24,00,34,13.00
2006,06,24,00,35,13.00
2006,06,24,00,36,13.00
2006,06,24,00,37,13.00
2006,06,24,00,38,13.00
2006,06,24,00,39,13.00
2006,06,24,00,40,13.00
2006,06,24,00,41,13.00
2006,06,24,00,42,13.10
2006,06,24,00,43,13.10
2006,06,24,00,44,13.10
2006,06,24,00,45,13.10
2006,06,24,00,46,13.10
2006,06,24,00,47,13.10
2006,06,24,00,48,13.10
2006,06,24,00,49,13.10
2006,06,24,00,50,13.10
2006,06,24,00,51,13.10
2006,06,24,00,52,13.10
2006,06,24,00,53,13.00
2006,06,24,00,54,13.00
2006,06,24,00,55,12.90
2006,06,24,00,56,12.90
2006,06,24,00,57,12.90
2006,06,24,00,58,12.90
2006,06,24,00,59,12.80
2006,06,24,01,00,12.80
2006,06,24,01,01,12.80
2006,06,24,01,02,12.70
2006,06,24,01,03,12.70
2006,06,24,01,04,12.70
2006,06,24,01,05,12.70
2006,06,24,01,06,12.70
2006,06,24,01,07,12.70
2006,06,24,01,08,12.70
2006,06,24,01,09,12.70
2006,06,24,01,10,12.70
2006,06,24,01,11,12.70
2006,06,24,01,12,12.70
2006,06,24,01,13,12.70
2006,06,24,01,14,12.70
2006,06,24,01,15,12.70
2006,06,24,01,16,12.70
2006,06,24,01,17,12.70
2006,06,24,01,18,12.70
2006,06,24,01,19,12.70
2006,06,24,01,20,12.70
2006,06,24,01,21,12.70
2006,06,24,01,22,12.70
2006,06,24,01,23,12.70
2006,06,24,01,24,12.60
2006,06,24,01,25,12.60
2006,06,24,01,26,12.60
2006,06,24,01,27,12.60
2006,06,24,01,28,12.60
2006,06,24,01,29,12.60
2006,06,24,01,30,12.60
2006,06,24,01,31,12.60
2006,06,24,01,32,12.60
2006,06,24,01,33,12.60
2006,06,24,01,34,12.60
2006,06,24,01,35,12.60
2006,06,24,01,36,12.60
2006,06,24,01,37,12.50
2006,06,24,01,38,12.50
2006,06,24,01,39,12.50
2006,06,24,01,40,12.50
2006,06,24,01,41,12.50
2006,06,24,01,42,12.50
2006,06,24,01,43,12.50
2006,06,24,01,44,12.50
2006,06,24,01,45,12.50
2006,06,24,01,46,12.50
2006,06,24,01,47,12.50
2006,06,24,01,48,12.40
2006,06,24,01,49,12.40
2006,06,24,01,50,12.40
2006,06,24,01,51,12.40
2006,06,24,01,52,12.40
2006,06,24,01,53,12.30
2006,06,24,01,54,12.30
2006,06,24,01,55,12.30
2006,06,24,01,56,12.30
2006,06,24,01,57,12.30
2006,06,24,01,58,12.20
2006,06,24,01,59,12.20
2006,06,24,02,00,12.20
2006,06,24,02,01,12.20
2006,06,24,02,02,12.20
2006,06,24,02,03,12.20
2006,06,24,02,04,12.20
2006,06,24,02,05,12.20
2006,06,24,02,06,12.20
2006,06,24,02,07,12.20
2006,06,24,02,08,12.20
2006,06,24,02,09,12.20
2006,06,24,02,10,12.20
2006,06,24,02,11,12.20
2006,06,24,02,12,12.20
2006,06,24,02,13,12.20
2006,06,24,02,14,12.20
2006,06,24,02,15,12.20
2006,06,24,02,16,12.20
2006,06,24,02,17,12.10
2006,06,24,02,18,12.10
2006,06,24,02,19,12.10
2006,06,24,02,20,12.10
2006,06,24,02,21,12.10
2006,06,24,02,22,12.10
2006,06,24,02,23,12.10
2006,06,24,02,24,12.10
2006,06,24,02,25,12.00
2006,06,24,02,26,12.00
2006,06,24,02,27,12.00
2006,06,24,02,28,12.00
2006,06,24,02,29,12.00
2006,06,24,02,30,12.00
2006,06,24,02,31,11.90
2006,06,24,02,32,11.90
2006,06,24,02,33,11.90
2006,06,24,02,34,11.90
2006,06,24,02,35,11.90
2006,06,24,02,36,11.90
2006,06,24,02,37,11.90
2006,06,24,02,38,11.80
2006,06,24,02,39,11.80
2006,06,24,02,40,11.80
2006,06,24,02,41,11.80
2006,06,24,02,42,11.80
2006,06,24,02,43,11.80
2006,06,24,02,44,11.80
2006,06,24,02,45,11.80
2006,06,24,02,46,11.70
2006,06,24,02,47,11.70
2006,06,24,02,48,11.70
2006,06,24,02,49,11.70
2006,06,24,02,50,11.70
2006,06,24,02,51,11.70
2006,06,24,02,52,11.70
2006,06,24,02,53,11.70
2006,06,24,02,54,11.70
2006,06,24,02,55,11.70
2006,06,24,02,56,11.70
2006,06,24,02,57,11.70
2006,06,24,02,58,11.60
2006,06,24,02,59,11.60
2006,06,24,03,00,11.60
2006,06,24,03,01,11.60
2006,06,24,03,02,11.60
2006,06,24,03,03,11.50
2006,06,24,03,04,11.50
2006,06,24,03,05,11.50
2006,06,24,03,06,11.50
2006,06,24,03,07,11.50
2006,06,24,03,08,11.50
2006,06,24,03,09,11.40
2006,06,24,03,10,11.40
2006,06,24,03,11,11.40
2006,06,24,03,12,11.40
2006,06,24,03,13,11.40
2006,06,24,03,14,11.40
2006,06,24,03,15,11.40
2006,06,24,03,16,11.40
2006,06,24,03,17,11.40
2006,06,24,03,18,11.40
2006,06,24,03,19,11.40
2006,06,24,03,20,11.30
2006,06,24,03,21,11.30
2006,06,24,03,22,11.30
2006,06,24,03,23,11.30
2006,06,24,03,24,11.30
2006,06,24,03,25,11.30
2006,06,24,03,26,11.30
2006,06,24,03,27,11.30
2006,06,24,03,28,11.20
2006,06,24,03,29,11.20
2006,06,24,03,30,11.20
2006,06,24,03,31,11.20
2006,06,24,03,32,11.20
2006,06,24,03,33,11.20
2006,06,24,03,34,11.20
2006,06,24,03,35,11.20
2006,06,24,03,36,11.20
2006,06,24,03,37,11.20
2006,06,24,03,38,11.20
2006,06,24,03,39,11.20
2006,06,24,03,40,11.20
2006,06,24,03,41,11.20
2006,06,24,03,42,11.20
2006,06,24,03,43,11.20
2006,06,24,03,44,11.20
2006,06,24,03,45,11.20
2006,06,24,03,46,11.20
2006,06,24,03,47,11.10
2006,06,24,03,48,11.10
2006,06,24,03,49,11.10
2006,06,24,03,50,11.10
2006,06,24,03,51,11.10
2006,06,24,03,52,11.10
2006,06,24,03,53,11.10
2006,06,24,03,54,11.10
2006,06,24,03,55,11.10
2006,06,24,03,56,11.10
2006,06,24,03,57,11.10
2006,06,24,03,58,11.10
2006,06,24,03,59,11.00
2006,06,24,04,00,11.00
2006,06,24,04,01,11.00
2006,06,24,04,02,11.00
2006,06,24,04,03,11.00
2006,06,24,04,04,11.00
2006,06,24,04,05,11.00
2006,06,24,04,06,11.00
2006,06,24,04,07,11.00
2006,06,24,04,08,11.00
2006,06,24,04,09,11.00
2006,06,24,04,10,11.00
2006,06,24,04,11,11.00
2006,06,24,04,12,11.00
2006,06,24,04,13,11.00
2006,06,24,04,14,11.00
2006,06,24,04,15,11.00
2006,06,24,04,16,11.00
2006,06,24,04,17,10.90
2006,06,24,04,18,10.90
2006,06,24,04,19,10.90
2006,06,24,04,20,10.90
2006,06,24,04,21,10.90
2006,06,24,04,22,10.90
2006,06,24,04,23,10.90
2006,06,24,04,24,10.90
2006,06,24,04,25,10.90
2006,06,24,04,26,10.90
2006,06,24,04,27,10.90
2006,06,24,04,28,10.90
2006,06,24,04,29,10.90
2006,06,24,04,30,10.90
2006,06,24,04,31,10.90
2006,06,24,04,32,10.90
2006,06,24,04,33,10.90
2006,06,24,04,34,10.90
2006,06,24,04,35,10.90
2006,06,24,04,36,10.80
2006,06,24,04,37,10.80
2006,06,24,04,38,10.80
2006,06,24,04,39,10.80
2006,06,24,04,40,10.80
2006,06,24,04,41,10.80
2006,06,24,04,42,10.80
2006,06,24,04,43,10.80
2006,06,24,04,44,10.80
2006,06,24,04,45,10.80
2006,06,24,04,46,10.80
2006,06,24,04,47,10.80
2006,06,24,04,48,10.80
2006,06,24,04,49,10.80
2006,06,24,04,50,10.80
2006,06,24,04,51,10.80
2006,06,24,04,52,10.80
2006,06,24,04,53,10.80
2006,06,24,04,54,10.80
2006,06,24,04,55,10.80
2006,06,24,04,56,10.80
2006,06,24,04,57,10.80
2006,06,24,04,58,10.80
2006,06,24,04,59,10.80
2006,06,24,05,00,10.80
2006,06,24,05,01,10.80
2006,06,24,05,02,10.80
2006,06,24,05,03,10.80
2006,06,24,05,04,10.80
2006,06,24,05,05,10.80
2006,06,24,05,06,10.80
2006,06,24,05,07,10.80
2006,06,24,05,08,10.80
2006,06,24,05,09,10.80
2006,06,24,05,10,10.80
2006,06,24,05,11,10.80
2006,06,24,05,12,10.80
2006,06,24,05,13,10.80
2006,06,24,05,14,10.70
2006,06,24,05,15,10.70
2006,06,24,05,16,10.70
2006,06,24,05,17,10.70
2006,06,24,05,18,10.70
2006,06,24,05,19,10.70
2006,06,24,05,20,10.80
2006,06,24,05,21,10.80
2006,06,24,05,22,10.80
2006,06,24,05,23,10.80
2006,06,24,05,24,10.80
2006,06,24,05,25,10.80
2006,06,24,05,26,10.70
2006,06,24,05,27,10.80
2006,06,24,05,28,10.80
2006,06,24,05,29,10.80
2006,06,24,05,30,10.80
2006,06,24,05,31,10.80
2006,06,24,05,32,10.80
2006,06,24,05,33,10.80
2006,06,24,05,34,10.80
2006,06,24,05,35,10.80
2006,06,24,05,36,10.80
2006,06,24,05,37,10.80
2006,06,24,05,38,10.80
2006,06,24,05,39,10.80
2006,06,24,05,40,10.80
2006,06,24,05,41,10.80
2006,06,24,05,42,10.80
2006,06,24,05,43,10.80
2006,06,24,05,44,10.80
2006,06,24,05,45,10.80
2006,06,24,05,46,10.80
2006,06,24,05,47,10.80
2006,06,24,05,48,10.80
2006,06,24,05,49,10.80
2006,06,24,05,50,10.80
2006,06,24,05,51,10.80
2006,06,24,05,52,10.80
2006,06,24,05,53,10.80
2006,06,24,05,54,10.80
2006,06,24,05,55,10.80
2006,06,24,05,56,10.80
2006,06,24,05,57,10.80
2006,06,24,05,58,10.80
2006,06,24,05,59,10.80
2006,06,24,06,00,10.80
2006,06,24,06,01,10.80
2006,06,24,06,02,10.90
2006,06,24,06,03,10.90
2006,06,24,06,04,10.90
2006,06,24,06,05,10.90
2006,06,24,06,06,10.90
2006,06,24,06,07,10.90
2006,06,24,06,08,10.90
2006,06,24,06,09,10.90
2006,06,24,06,10,10.90
2006,06,24,06,11,10.90
2006,06,24,06,12,11.00
2006,06,24,06,13,11.00
2006,06,24,06,14,11.00
2006,06,24,06,15,11.10
2006,06,24,06,16,11.10
2006,06,24,06,17,11.10
2006,06,24,06,18,11.10
2006,06,24,06,19,11.10
2006,06,24,06,20,11.20
2006,06,24,06,21,11.20
2006,06,24,06,22,11.30
2006,06,24,06,23,11.30
2006,06,24,06,24,11.30
2006,06,24,06,25,11.30
2006,06,24,06,26,11.40
2006,06,24,06,27,11.40
2006,06,24,06,28,11.40
2006,06,24,06,29,11.50
2006,06,24,06,30,11.50
2006,06,24,06,31,11.50
2006,06,24,06,32,11.60
2006,06,24,06,33,11.60
2006,06,24,06,34,11.60
2006,06,24,06,35,11.70
2006,06,24,06,36,11.70
2006,06,24,06,37,11.70
2006,06,24,06,38,11.70
2006,06,24,06,39,11.80
2006,06,24,06,40,11.80
2006,06,24,06,41,11.80
2006,06,24,06,42,11.90
2006,06,24,06,43,11.90
2006,06,24,06,44,11.90
2006,06,24,06,45,11.90
2006,06,24,06,46,12.00
2006,06,24,06,47,12.10
2006,06,24,06,48,12.10
2006,06,24,06,49,12.20
2006,06,24,06,50,12.20
2006,06,24,06,51,12.30
2006,06,24,06,52,12.40
2006,06,24,06,53,12.50
2006,06,24,06,54,12.60
2006,06,24,06,55,12.70
2006,06,24,06,56,12.80
2006,06,24,06,57,12.90
2006,06,24,06,58,13.00
2006,06,24,06,59,13.10
2006,06,24,07,00,13.20
2006,06,24,07,01,13.30
2006,06,24,07,02,13.50
2006,06,24,07,03,13.60
2006,06,24,07,04,13.70
2006,06,24,07,05,13.90
2006,06,24,07,06,14.10
2006,06,24,07,07,14.20
2006,06,24,07,08,14.30
2006,06,24,07,09,14.30
2006,06,24,07,10,14.40
2006,06,24,07,11,14.50
2006,06,24,07,12,14.50
2006,06,24,07,13,14.60
2006,06,24,07,14,14.70
2006,06,24,07,15,14.70
2006,06,24,07,16,14.70
2006,06,24,07,17,14.80
2006,06,24,07,18,14.80
2006,06,24,07,19,14.90
2006,06,24,07,20,14.90
2006,06,24,07,21,14.90
2006,06,24,07,22,14.90
2006,06,24,07,23,15.00
2006,06,24,07,24,15.00
2006,06,24,07,25,15.00
2006,06,24,07,26,15.00
2006,06,24,07,27,15.10
2006,06,24,07,28,15.20
2006,06,24,07,29,15.30
2006,06,24,07,30,15.40
2006,06,24,07,31,15.60
2006,06,24,07,32,15.70
2006,06,24,07,33,15.80
2006,06,24,07,34,15.90
2006,06,24,07,35,16.10
2006,06,24,07,36,16.20
2006,06,24,07,37,16.30
2006,06,24,07,38,16.40
2006,06,24,07,39,16.50
2006,06,24,07,40,16.60
2006,06,24,07,41,16.70
2006,06,24,07,42,16.80
2006,06,24,07,43,17.00
2006,06,24,07,44,17.10
2006,06,24,07,45,17.10
2006,06,24,07,46,17.30
2006,06,24,07,47,17.40
2006,06,24,07,48,17.50
2006,06,24,07,49,17.50
2006,06,24,07,50,17.60
2006,06,24,07,51,17.60
2006,06,24,07,52,17.70
2006,06,24,07,53,17.70
2006,06,24,07,54,17.80
2006,06,24,07,55,17.80
2006,06,24,07,56,17.90
2006,06,24,07,57,17.90
2006,06,24,07,58,17.90
2006,06,24,07,59,17.90
2006,06,24,08,00,17.90
2006,06,24,08,01,17.90
2006,06,24,08,02,17.90
2006,06,24,08,03,17.90
2006,06,24,08,04,17.90
2006,06,24,08,05,17.90
2006,06,24,08,06,18.00
2006,06,24,08,07,18.00
2006,06,24,08,08,18.10
2006,06,24,08,09,18.10
2006,06,24,08,10,18.20
2006,06,24,08,11,18.20
2006,06,24,08,12,18.20
2006,06,24,08,13,18.20
2006,06,24,08,14,18.30
2006,06,24,08,15,18.30
2006,06,24,08,16,18.30
2006,06,24,08,17,18.30
2006,06,24,08,18,18.30
2006,06,24,08,19,18.20
2006,06,24,08,20,18.10
2006,06,24,08,21,18.00
2006,06,24,08,22,18.00
2006,06,24,08,23,18.00
2006,06,24,08,24,17.90
2006,06,24,08,25,17.90
2006,06,24,08,26,17.80
2006,06,24,08,27,17.80
2006,06,24,08,28,17.80
2006,06,24,08,29,17.80
2006,06,24,08,30,17.80
2006,06,24,08,31,17.80
2006,06,24,08,32,17.80
2006,06,24,08,33,17.80
2006,06,24,08,34,17.80
2006,06,24,08,35,17.80
2006,06,24,08,36,17.80
2006,06,24,08,37,17.80
2006,06,24,08,38,17.80
2006,06,24,08,39,17.80
2006,06,24,08,40,17.80
2006,06,24,08,41,17.80
2006,06,24,08,42,17.80
2006,06,24,08,43,17.80
2006,06,24,08,44,17.90
2006,06,24,08,45,17.90
2006,06,24,08,46,17.90
2006,06,24,08,47,17.90
2006,06,24,08,48,18.00
2006,06,24,08,49,18.00
2006,06,24,08,50,18.10
2006,06,24,08,51,18.10
2006,06,24,08,52,18.10
2006,06,24,08,53,18.10
2006,06,24,08,54,18.10
2006,06,24,08,55,18.10
2006,06,24,08,56,18.10
2006,06,24,08,57,18.10
2006,06,24,08,58,18.20
2006,06,24,08,59,18.20
2006,06,24,09,00,18.20
2006,06,24,09,01,18.20
2006,06,24,09,02,18.20
2006,06,24,09,03,18.20
2006,06,24,09,04,18.20
2006,06,24,09,05,18.20
2006,06,24,09,06,18.20
2006,06,24,09,07,18.20
2006,06,24,09,08,18.20
2006,06,24,09,09,18.30
2006,06,24,09,10,18.30
2006,06,24,09,11,18.30
2006,06,24,09,12,18.30
2006,06,24,09,13,18.30
2006,06,24,09,14,18.30
2006,06,24,09,15,18.40
2006,06,24,09,16,18.40
2006,06,24,09,17,18.50
2006,06,24,09,18,18.50
2006,06,24,09,19,18.60
2006,06,24,09,20,18.60
2006,06,24,09,21,18.60
2006,06,24,09,22,18.60
2006,06,24,09,23,18.50
2006,06,24,09,24,18.50
2006,06,24,09,25,18.50
2006,06,24,09,26,18.50
2006,06,24,09,27,18.50
2006,06,24,09,28,18.50
2006,06,24,09,29,18.60
2006,06,24,09,30,18.60
2006,06,24,09,31,18.70
2006,06,24,09,32,18.70
2006,06,24,09,33,18.80
2006,06,24,09,34,18.80
2006,06,24,09,35,18.80
2006,06,24,09,36,18.80
2006,06,24,09,37,18.80
2006,06,24,09,38,18.90
2006,06,24,09,39,18.90
2006,06,24,09,40,18.90
2006,06,24,09,41,18.90
2006,06,24,09,42,18.90
2006,06,24,09,43,18.90
2006,06,24,09,44,18.90
2006,06,24,09,45,18.90
2006,06,24,09,46,19.00
2006,06,24,09,47,19.00
2006,06,24,09,48,19.10
2006,06,24,09,49,19.10
2006,06,24,09,50,19.20
2006,06,24,09,51,19.20
2006,06,24,09,52,19.30
2006,06,24,09,53,19.30
2006,06,24,09,54,19.40
2006,06,24,09,55,19.40
2006,06,24,09,56,19.40
2006,06,24,09,57,19.40
2006,06,24,09,58,19.50
2006,06,24,09,59,19.50
2006,06,24,10,00,19.50
2006,06,24,10,01,19.60
2006,06,24,10,02,19.60
2006,06,24,10,03,19.70
2006,06,24,10,04,19.70
2006,06,24,10,05,19.80
2006,06,24,10,06,19.80
2006,06,24,10,07,19.80
2006,06,24,10,08,19.90
2006,06,24,10,09,20.00
2006,06,24,10,10,20.00
2006,06,24,10,11,20.10
2006,06,24,10,12,20.10
2006,06,24,10,13,20.10
2006,06,24,10,14,20.10
2006,06,24,10,15,20.10
2006,06,24,10,16,20.10
2006,06,24,10,17,20.10
2006,06,24,10,18,20.10
2006,06,24,10,19,20.10
2006,06,24,10,20,20.10
2006,06,24,10,21,20.10
2006,06,24,10,22,20.10
2006,06,24,10,23,20.10
2006,06,24,10,24,20.10
2006,06,24,10,25,20.10
2006,06,24,10,26,20.10
2006,06,24,10,27,20.10
2006,06,24,10,28,20.10
2006,06,24,10,29,20.10
2006,06,24,10,30,20.20
2006,06,24,10,31,20.20
2006,06,24,10,32,20.20
2006,06,24,10,33,20.20
2006,06,24,10,34,20.20
2006,06,24,10,35,20.20
2006,06,24,10,36,20.20
2006,06,24,10,37,20.20
2006,06,24,10,38,20.20
2006,06,24,10,39,20.20
2006,06,24,10,40,20.30
2006,06,24,10,41,20.30
2006,06,24,10,42,20.40
2006,06,24,10,43,20.40
2006,06,24,10,44,20.40
2006,06,24,10,45,20.40
2006,06,24,10,46,20.40
2006,06,24,10,47,20.50
2006,06,24,10,48,20.50
2006,06,24,10,49,20.50
2006,06,24,10,50,20.50
2006,06,24,10,51,20.40
2006,06,24,10,52,20.50
2006,06,24,10,53,20.50
2006,06,24,10,54,20.60
2006,06,24,10,55,20.60
2006,06,24,10,56,20.60
2006,06,24,10,57,20.70
2006,06,24,10,58,20.70
2006,06,24,10,59,20.70
2006,06,24,11,00,20.70
2006,06,24,11,01,20.70
2006,06,24,11,02,20.80
2006,06,24,11,03,20.80
2006,06,24,11,04,20.80
2006,06,24,11,05,20.80
2006,06,24,11,06,20.80
2006,06,24,11,07,20.90
2006,06,24,11,08,20.90
2006,06,24,11,09,20.90
2006,06,24,11,10,20.90
2006,06,24,11,11,21.00
2006,06,24,11,12,21.00
2006,06,24,11,13,21.10
2006,06,24,11,14,21.10
2006,06,24,11,15,21.10
2006,06,24,11,16,21.10
2006,06,24,11,17,21.20
2006,06,24,11,18,21.20
2006,06,24,11,19,21.20
2006,06,24,11,20,21.30
2006,06,24,11,21,21.30
2006,06,24,11,22,21.30
2006,06,24,11,23,21.30
2006,06,24,11,24,21.30
2006,06,24,11,25,21.30
2006,06,24,11,26,21.30
2006,06,24,11,27,21.30
2006,06,24,11,28,21.40
2006,06,24,11,29,21.40
2006,06,24,11,30,21.40
2006,06,24,11,31,21.40
2006,06,24,11,32,21.40
2006,06,24,11,33,21.50
2006,06,24,11,34,21.50
2006,06,24,11,35,21.50
2006,06,24,11,36,21.50
2006,06,24,11,37,21.60
2006,06,24,11,38,21.60
2006,06,24,11,39,21.60
2006,06,24,11,40,21.60
2006,06,24,11,41,21.70
2006,06,24,11,42,21.70
2006,06,24,11,43,21.70
2006,06,24,11,44,21.70
2006,06,24,11,45,21.70
2006,06,24,11,46,21.80
2006,06,24,11,47,21.80
2006,06,24,11,48,21.80
2006,06,24,11,49,21.90
2006,06,24,11,50,21.90
2006,06,24,11,51,21.90
2006,06,24,11,52,21.90
2006,06,24,11,53,21.90
2006,06,24,11,54,22.00
2006,06,24,11,55,22.00
2006,06,24,11,56,22.00
2006,06,24,11,57,22.00
2006,06,24,11,58,22.10
2006,06,24,11,59,22.10
2006,06,24,12,00,22.10
2006,06,24,12,01,22.10
2006,06,24,12,02,22.10
2006,06,24,12,03,22.10
2006,06,24,12,04,22.10
2006,06,24,12,05,22.20
2006,06,24,12,06,22.20
2006,06,24,12,07,22.20
2006,06,24,12,08,22.20
2006,06,24,12,09,22.30
2006,06,24,12,10,22.30
2006,06,24,12,11,22.30
2006,06,24,12,12,22.30
2006,06,24,12,13,22.20
2006,06,24,12,14,22.20
2006,06,24,12,15,22.20
2006,06,24,12,16,22.20
2006,06,24,12,17,22.20
2006,06,24,12,18,22.20
2006,06,24,12,19,22.20
2006,06,24,12,20,22.20
2006,06,24,12,21,22.40
2006,06,24,12,22,22.40
2006,06,24,12,23,22.40
2006,06,24,12,24,22.50
2006,06,24,12,25,22.60
2006,06,24,12,26,22.60
2006,06,24,12,27,22.60
2006,06,24,12,28,22.60
2006,06,24,12,29,22.60
2006,06,24,12,30,22.70
2006,06,24,12,31,22.70
2006,06,24,12,32,22.70
2006,06,24,12,33,22.70
2006,06,24,12,34,22.70
2006,06,24,12,35,22.70
2006,06,24,12,36,22.80
2006,06,24,12,37,22.80
2006,06,24,12,38,22.80
2006,06,24,12,39,22.80
2006,06,24,12,40,22.90
2006,06,24,12,41,22.90
2006,06,24,12,42,23.00
2006,06,24,12,43,23.10
2006,06,24,12,44,23.10
2006,06,24,12,45,23.10
2006,06,24,12,46,23.10
2006,06,24,12,47,23.10
2006,06,24,12,48,23.10
2006,06,24,12,49,23.20
2006,06,24,12,50,23.20
2006,06,24,12,51,23.20
2006,06,24,12,52,23.20
2006,06,24,12,53,23.20
2006,06,24,12,54,23.20
2006,06,24,12,55,23.20
2006,06,24,12,56,23.30
2006,06,24,12,57,23.30
2006,06,24,12,58,23.40
2006,06,24,12,59,23.50
2006,06,24,13,00,23.50
2006,06,24,13,01,23.50
2006,06,24,13,02,23.50
2006,06,24,13,03,23.50
2006,06,24,13,04,23.40
2006,06,24,13,05,23.40
2006,06,24,13,06,23.40
2006,06,24,13,07,23.30
2006,06,24,13,08,23.30
2006,06,24,13,09,23.40
2006,06,24,13,10,23.40
2006,06,24,13,11,23.40
2006,06,24,13,12,23.40
2006,06,24,13,13,23.50
2006,06,24,13,14,23.60
2006,06,24,13,15,23.60
2006,06,24,13,16,23.60
2006,06,24,13,17,23.60
2006,06,24,13,18,23.60
2006,06,24,13,19,23.60
2006,06,24,13,20,23.60
2006,06,24,13,21,23.70
2006,06,24,13,22,23.70
2006,06,24,13,23,23.80
2006,06,24,13,24,23.70
2006,06,24,13,25,23.70
2006,06,24,13,26,23.70
2006,06,24,13,27,23.70
2006,06,24,13,28,23.80
2006,06,24,13,29,23.90
2006,06,24,13,30,23.90
2006,06,24,13,31,23.90
2006,06,24,13,32,23.90
2006,06,24,13,33,23.90
2006,06,24,13,34,23.90
2006,06,24,13,35,23.90
2006,06,24,13,36,23.90
2006,06,24,13,37,23.90
2006,06,24,13,38,24.00
2006,06,24,13,39,24.10
2006,06,24,13,40,24.10
2006,06,24,13,41,24.20
2006,06,24,13,42,24.20
2006,06,24,13,43,24.30
2006,06,24,13,44,24.20
2006,06,24,13,45,24.20
2006,06,24,13,46,24.20
2006,06,24,13,47,24.20
2006,06,24,13,48,24.20
2006,06,24,13,49,24.20
2006,06,24,13,50,24.30
2006,06,24,13,51,24.20
2006,06,24,13,52,24.20
2006,06,24,13,53,24.30
2006,06,24,13,54,24.40
2006,06,24,13,55,24.40
2006,06,24,13,56,24.40
2006,06,24,13,57,24.40
2006,06,24,13,58,24.50
2006,06,24,13,59,24.50
2006,06,24,14,00,24.60
2006,06,24,14,01,24.70
2006,06,24,14,02,24.80
2006,06,24,14,03,24.90
2006,06,24,14,04,24.90
2006,06,24,14,05,25.10
2006,06,24,14,06,25.10
2006,06,24,14,07,25.20
2006,06,24,14,08,25.20
2006,06,24,14,09,25.30
2006,06,24,14,10,25.30
2006,06,24,14,11,25.10
2006,06,24,14,12,25.00
2006,06,24,14,13,25.00
2006,06,24,14,14,25.00
2006,06,24,14,15,25.00
2006,06,24,14,16,24.90
2006,06,24,14,17,24.90
2006,06,24,14,18,24.70
2006,06,24,14,19,24.70
2006,06,24,14,20,24.70
2006,06,24,14,21,24.80
2006,06,24,14,22,24.80
2006,06,24,14,23,24.90
2006,06,24,14,24,25.00
2006,06,24,14,25,25.00
2006,06,24,14,26,25.10
2006,06,24,14,27,25.10
2006,06,24,14,28,25.20
2006,06,24,14,29,25.20
2006,06,24,14,30,25.20
2006,06,24,14,31,25.30
2006,06,24,14,32,25.30
2006,06,24,14,33,25.20
2006,06,24,14,34,25.20
2006,06,24,14,35,25.30
2006,06,24,14,36,25.30
2006,06,24,14,37,25.30
2006,06,24,14,38,25.30
2006,06,24,14,39,25.30
2006,06,24,14,40,25.30
2006,06,24,14,41,25.20
2006,06,24,14,42,25.20
2006,06,24,14,43,25.10
2006,06,24,14,44,25.20
2006,06,24,14,45,25.10
2006,06,24,14,46,25.10
2006,06,24,14,47,25.10
2006,06,24,14,48,25.10
2006,06,24,14,49,25.20
2006,06,24,14,50,25.20
2006,06,24,14,51,25.20
2006,06,24,14,52,25.20
2006,06,24,14,53,25.20
2006,06,24,14,54,25.20
2006,06,24,14,55,25.20
2006,06,24,14,56,25.30
2006,06,24,14,57,25.40
2006,06,24,14,58,25.40
2006,06,24,14,59,25.30
2006,06,24,15,00,25.30
2006,06,24,15,01,25.30
2006,06,24,15,02,25.30
2006,06,24,15,03,25.30
2006,06,24,15,04,25.20
2006,06,24,15,05,25.20
2006,06,24,15,06,25.20
2006,06,24,15,07,25.20
2006,06,24,15,08,25.30
2006,06,24,15,09,25.30
2006,06,24,15,10,25.30
2006,06,24,15,11,25.30
2006,06,24,15,12,25.40
2006,06,24,15,13,25.50
2006,06,24,15,14,25.50
2006,06,24,15,15,25.70
2006,06,24,15,16,25.80
2006,06,24,15,17,25.80
2006,06,24,15,18,25.90
2006,06,24,15,19,25.90
2006,06,24,15,20,26.00
2006,06,24,15,21,25.90
2006,06,24,15,22,25.80
2006,06,24,15,23,25.70
2006,06,24,15,24,25.80
2006,06,24,15,25,25.80
2006,06,24,15,26,25.70
2006,06,24,15,27,25.70
2006,06,24,15,28,25.70
2006,06,24,15,29,25.70
2006,06,24,15,30,25.80
2006,06,24,15,31,25.80
2006,06,24,15,32,25.80
2006,06,24,15,33,25.80
2006,06,24,15,34,25.80
2006,06,24,15,35,25.90
2006,06,24,15,36,25.90
2006,06,24,15,37,26.00
2006,06,24,15,38,26.10
2006,06,24,15,39,26.10
2006,06,24,15,40,26.00
2006,06,24,15,41,25.90
2006,06,24,15,42,25.90
2006,06,24,15,43,25.90
2006,06,24,15,44,25.90
2006,06,24,15,45,25.80
2006,06,24,15,46,25.80
2006,06,24,15,47,25.80
2006,06,24,15,48,25.90
2006,06,24,15,49,25.90
2006,06,24,15,50,25.90
2006,06,24,15,51,25.90
2006,06,24,15,52,25.90
2006,06,24,15,53,25.90
2006,06,24,15,54,25.90
2006,06,24,15,55,25.90
2006,06,24,15,56,25.90
2006,06,24,15,57,25.80
2006,06,24,15,58,25.80
2006,06,24,15,59,25.80
2006,06,24,16,00,25.90
2006,06,24,16,01,25.90
2006,06,24,16,02,25.90
2006,06,24,16,03,26.00
2006,06,24,16,04,26.10
2006,06,24,16,05,26.20
2006,06,24,16,06,26.20
2006,06,24,16,07,26.30
2006,06,24,16,08,26.30
2006,06,24,16,09,26.20
2006,06,24,16,10,26.10
2006,06,24,16,11,26.00
2006,06,24,16,12,26.00
2006,06,24,16,13,25.90
2006,06,24,16,14,25.90
2006,06,24,16,15,25.70
2006,06,24,16,16,25.70
2006,06,24,16,17,25.70
2006,06,24,16,18,25.70
2006,06,24,16,19,25.70
2006,06,24,16,20,25.80
2006,06,24,16,21,25.80
2006,06,24,16,22,25.80
2006,06,24,16,23,25.90
2006,06,24,16,24,25.90
2006,06,24,16,25,26.00
2006,06,24,16,26,26.00
2006,06,24,16,27,25.90
2006,06,24,16,28,25.80
2006,06,24,16,29,25.80
2006,06,24,16,30,25.80
2006,06,24,16,31,25.80
2006,06,24,16,32,25.90
2006,06,24,16,33,25.90
2006,06,24,16,34,25.90
2006,06,24,16,35,26.00
2006,06,24,16,36,26.00
2006,06,24,16,37,26.00
2006,06,24,16,38,26.00
2006,06,24,16,39,26.10
2006,06,24,16,40,26.10
2006,06,24,16,41,26.20
2006,06,24,16,42,26.20
2006,06,24,16,43,26.20
2006,06,24,16,44,26.20
2006,06,24,16,45,26.20
2006,06,24,16,46,26.20
2006,06,24,16,47,26.10
2006,06,24,16,48,26.20
2006,06,24,16,49,26.20
2006,06,24,16,50,26.30
2006,06,24,16,51,26.30
2006,06,24,16,52,26.30
2006,06,24,16,53,26.30
2006,06,24,16,54,26.20
2006,06,24,16,55,26.20
2006,06,24,16,56,26.10
2006,06,24,16,57,26.10
2006,06,24,16,58,26.10
2006,06,24,16,59,26.10
2006,06,24,17,00,26.10
2006,06,24,17,01,26.20
2006,06,24,17,02,26.30
2006,06,24,17,03,26.40
2006,06,24,17,04,26.40
2006,06,24,17,05,26.40
2006,06,24,17,06,26.40
2006,06,24,17,07,26.40
2006,06,24,17,08,26.40
2006,06,24,17,09,26.40
2006,06,24,17,10,26.40
2006,06,24,17,11,26.40
2006,06,24,17,12,26.40
2006,06,24,17,13,26.40
2006,06,24,17,14,26.40
2006,06,24,17,15,26.40
2006,06,24,17,16,26.40
2006,06,24,17,17,26.50
2006,06,24,17,18,26.60
2006,06,24,17,19,26.60